Date String (YYYY-MM-DD hh:mm:ss) UTC,Instrument flags,absolute air pressure of the measurement (hPa),sample flow rate (lpm),inlet stack bypass flow (lpm),air temperature of the measurement (°C),ambient temperature measured by the external sensor (°C),aerosol sample conditioner tube jacket temperature (°C),OPC LED temperature (°C),internal box temperature (°C),relative humidity of the measurement (%),span deviation,mass concentration of particles derived from Lorenz-Mie calculation of OPC scattering (μg/m³),mass concentration of particles derived from Lorenz-Mie calculation of OPC scattering (μg/m³),mass concentration of particles derived from Lorenz-Mie calculation of OPC scattering (μg/m³)
DateTimeUTC,F1_M11,P_M11,Q1_M11,Q2_M11,T1_M11,T2_M11,T3_M11,T4_M11,T5_M11,U1_M11,ZSPAN_M11,X2_M11,X0_M11,X1_M11
2023-08-23 02:00:00,SystemResetWarning,0833.2,5.01,000.00,027.4,023.5,000.0,035.5,028.8,25.1,0000.8,0007.48,0013.15,0006.57
2023-08-23 02:01:00,SystemResetWarning,0833.1,5.01,000.00,027.3,023.8,000.0,035.5,028.7,25.2,0000.8,0007.46,0013.11,0006.57
2023-08-23 02:02:00,SystemResetWarning,0833.1,4.99,000.00,027.3,024.2,000.0,035.6,028.8,25.5,0000.9,0007.48,0013.66,0006.58
2023-08-23 02:03:00,SystemResetWarning,0833.2,4.99,000.00,027.3,024.6,000.0,035.6,028.9,25.3,0001.3,0007.47,0014.06,0006.59
2023-08-23 02:04:00,SystemResetWarning,0833.2,5.00,000.00,027.3,025.1,000.0,035.6,029.1,25.5,0001.3,0007.42,0014.78,0006.59
2023-08-23 02:05:00,SystemResetWarning,0833.2,5.01,000.00,027.4,025.5,000.0,035.7,029.2,25.6,0001.4,0007.42,0015.22,0006.60
2023-08-23 02:06:00,SystemResetWarning,0833.2,5.01,000.00,027.4,025.9,000.0,035.7,029.3,25.9,0001.1,0007.40,0015.84,0006.61
2023-08-23 02:07:00,SystemResetWarning,0833.2,4.99,000.00,027.5,026.2,000.0,035.7,029.4,25.8,0000.8,0007.41,0016.24,0006.62
2023-08-23 02:08:00,SystemResetWarning,0833.2,4.98,000.00,027.5,025.4,000.0,035.7,029.2,25.0,0001.2,0007.44,0016.10,0006.62
2023-08-23 02:09:00,SystemResetWarning,0833.2,5.00,000.00,027.4,023.8,000.0,035.6,028.8,25.5,0001.6,0007.45,0016.05,0006.60
2023-08-23 02:10:00,SystemResetWarning,0833.2,5.02,000.00,027.3,023.5,000.0,035.5,028.6,25.3,0001.2,0007.43,0015.82,0006.61
2023-08-23 02:11:00,SystemResetWarning,0833.2,5.00,000.00,027.3,023.8,000.0,035.5,028.7,25.3,0001.1,0007.41,0015.72,0006.63
2023-08-23 02:12:00,SystemResetWarning,0833.2,5.00,000.00,027.2,024.2,000.0,035.6,028.8,25.2,0001.0,0007.41,0015.71,0006.63
2023-08-23 02:13:00,SystemResetWarning,0833.2,5.01,000.00,027.3,024.7,000.0,035.6,028.9,25.3,0000.8,0007.40,0015.71,0006.62
2023-08-23 02:14:00,SystemResetWarning,0833.2,5.00,000.00,027.3,025.2,000.0,035.6,029.0,25.8,0000.6,0007.35,0015.21,0006.61
2023-08-23 02:15:00,SystemResetWarning,0833.2,5.00,000.00,027.3,025.6,000.0,035.7,029.1,26.0,0000.5,0007.31,0014.69,0006.59
2023-08-23 02:16:00,SystemResetWarning,0833.2,5.00,000.00,027.4,025.9,000.0,035.7,029.2,25.8,0000.8,0007.30,0014.35,0006.57
2023-08-23 02:17:00,SystemResetWarning,0833.2,5.00,000.00,027.5,026.2,000.0,035.7,029.3,25.5,0001.6,0007.30,0013.92,0006.57
2023-08-23 02:18:00,SystemResetWarning,0833.2,4.99,000.00,027.5,026.3,000.0,035.8,029.4,25.0,0002.0,0007.29,0013.47,0006.56
2023-08-23 02:19:00,SystemResetWarning,0833.2,4.99,000.00,027.5,025.0,000.0,035.7,029.1,25.0,0002.0,0007.25,0013.19,0006.54
2023-08-23 02:20:00,SystemResetWarning,0833.2,5.00,000.00,027.4,023.6,000.0,035.6,028.8,24.9,0001.9,0007.23,0012.94,0006.55
2023-08-23 02:21:00,SystemResetWarning,0833.2,5.01,000.00,027.3,023.6,000.0,035.5,028.6,25.1,0002.5,0007.24,0013.87,0006.56
2023-08-23 02:22:00,SystemResetWarning,0833.2,5.00,000.00,027.2,024.0,000.0,035.6,028.7,25.5,0002.6,0007.23,0013.98,0006.54
2023-08-23 02:23:00,SystemResetWarning,0833.2,4.99,000.00,027.2,024.4,000.0,035.6,028.8,25.9,0003.2,0007.23,0014.06,0006.53
2023-08-23 02:24:00,SystemResetWarning,0833.2,5.00,000.00,027.3,024.9,000.0,035.6,029.0,25.9,0003.4,0007.24,0013.74,0006.53
2023-08-23 02:25:00,SystemResetWarning,0833.2,5.01,000.00,027.3,025.3,000.0,035.7,029.1,25.8,0003.4,0007.30,0013.99,0006.54
2023-08-23 02:26:00,SystemResetWarning,0833.2,5.01,000.00,027.4,025.7,000.0,035.7,029.2,25.7,0003.6,0007.33,0013.96,0006.55
2023-08-23 02:27:00,SystemResetWarning,0833.2,5.00,000.00,027.4,026.0,000.0,035.7,029.3,25.5,0003.7,0007.30,0013.69,0006.54
2023-08-23 02:28:00,SystemResetWarning,0833.3,4.99,000.00,027.5,026.3,000.0,035.8,029.4,25.2,0003.3,0007.30,0013.55,0006.54
2023-08-23 02:29:00,SystemResetWarning,0833.2,4.99,000.00,027.6,026.0,000.0,035.8,029.3,25.0,0003.1,0007.28,0013.78,0006.54
2023-08-23 02:30:00,SystemResetWarning,0833.2,5.00,000.00,027.5,024.3,000.0,035.6,028.9,25.0,0002.9,0007.26,0013.62,0006.54
2023-08-23 02:31:00,SystemResetWarning,0833.2,5.01,000.00,027.4,023.4,000.0,035.6,028.7,25.2,0002.6,0007.29,0013.67,0006.53
2023-08-23 02:32:00,SystemResetWarning,0833.2,5.01,000.00,027.3,023.7,000.0,035.6,028.6,25.4,0002.3,0007.28,0012.77,0006.52
2023-08-23 02:33:00,SystemResetWarning,0833.2,5.00,000.00,027.2,024.1,000.0,035.6,028.7,25.3,0002.1,0007.29,0012.64,0006.53
2023-08-23 02:34:00,SystemResetWarning,0833.2,4.99,000.00,027.3,024.6,000.0,035.6,028.8,25.3,0001.8,0007.28,0012.58,0006.54
2023-08-23 02:35:00,SystemResetWarning,0833.2,5.00,000.00,027.3,025.0,000.0,035.7,029.0,25.1,0001.7,0007.27,0012.78,0006.54
2023-08-23 02:36:00,SystemResetWarning,0833.3,5.00,000.00,027.3,025.4,000.0,035.7,029.1,25.1,0001.8,0007.24,0013.37,0006.54
2023-08-23 02:37:00,SystemResetWarning,0833.3,5.01,000.00,027.4,025.8,000.0,035.7,029.2,25.3,0001.3,0007.23,0012.55,0006.54
2023-08-23 02:38:00,SystemResetWarning,0833.3,5.01,000.00,027.5,026.1,000.0,035.7,029.3,25.1,0001.2,0007.29,0012.70,0006.55
2023-08-23 02:39:00,SystemResetWarning,0833.3,4.99,000.00,027.5,026.3,000.0,035.8,029.4,25.3,0001.1,0007.34,0013.27,0006.56
2023-08-23 02:40:00,SystemResetWarning,0833.4,4.98,000.00,027.5,025.5,000.0,035.7,029.2,25.2,0001.1,0007.36,0013.77,0006.57
2023-08-23 02:41:00,SystemResetWarning,0833.3,5.00,000.00,027.4,023.9,000.0,035.6,028.8,25.3,0000.9,0007.43,0014.02,0006.57
2023-08-23 02:42:00,SystemResetWarning,0833.3,5.00,000.00,027.4,023.5,000.0,035.5,028.7,25.3,0000.9,0007.41,0013.98,0006.58
2023-08-23 02:43:00,SystemResetWarning,0833.4,5.01,000.00,027.3,023.8,000.0,035.6,028.7,25.4,0001.0,0007.44,0014.22,0006.57
2023-08-23 02:44:00,SystemResetWarning,0833.4,5.01,000.00,027.3,024.2,000.0,035.6,028.8,25.3,0001.0,0007.46,0014.39,0006.58
2023-08-23 02:45:00,SystemResetWarning,0833.4,4.99,000.00,027.3,024.7,000.0,035.6,028.9,24.8,0001.2,0007.50,0014.28,0006.58
2023-08-23 02:46:00,SystemResetWarning,0833.4,5.00,000.00,027.3,025.1,000.0,035.7,029.0,24.7,0001.0,0007.53,0014.19,0006.60
2023-08-23 02:47:00,SystemResetWarning,0833.4,4.99,000.00,027.4,025.5,000.0,035.7,029.2,24.6,0000.9,0007.57,0013.39,0006.61
2023-08-23 02:48:00,SystemResetWarning,0833.5,5.00,000.00,027.4,025.9,000.0,035.7,029.2,24.5,0001.2,0007.57,0013.50,0006.61
2023-08-23 02:49:00,SystemResetWarning,0833.4,5.00,000.00,027.5,026.1,000.0,035.8,029.3,24.3,0001.1,0007.51,0013.47,0006.60
2023-08-23 02:50:00,SystemResetWarning,0833.4,5.00,000.00,027.5,026.4,000.0,035.8,029.4,24.3,0001.0,0007.48,0013.06,0006.57
2023-08-23 02:51:00,SystemResetWarning,0833.5,4.98,000.00,027.6,025.9,000.0,035.8,029.3,24.3,0001.3,0007.46,0012.63,0006.56
2023-08-23 02:52:00,SystemResetWarning,0833.5,5.00,000.00,027.5,024.1,000.0,035.7,028.9,24.7,0001.3,0007.43,0012.63,0006.55
2023-08-23 02:53:00,SystemResetWarning,0833.5,5.01,000.00,027.4,023.4,000.0,035.6,028.7,25.2,0001.6,0007.45,0013.28,0006.54
2023-08-23 02:54:00,SystemResetWarning,0833.4,5.01,000.00,027.3,023.7,000.0,035.6,028.7,25.3,0001.5,0007.44,0013.47,0006.55
2023-08-23 02:55:00,SystemResetWarning,0833.5,5.00,000.00,027.3,024.1,000.0,035.6,028.8,25.4,0001.6,0007.41,0013.46,0006.53
2023-08-23 02:56:00,SystemResetWarning,0833.5,5.00,000.00,027.3,024.6,000.0,035.6,028.9,25.4,0001.6,0007.37,0014.29,0006.50
2023-08-23 02:57:00,SystemResetWarning,0833.5,5.00,000.00,027.3,025.0,000.0,035.7,029.0,25.3,0001.8,0007.38,0014.65,0006.47
2023-08-23 02:58:00,SystemResetWarning,0833.6,5.00,000.00,027.4,025.4,000.0,035.7,029.1,25.3,0001.8,0007.32,0014.73,0006.44
2023-08-23 02:59:00,SystemResetWarning,0833.6,5.00,000.00,027.4,025.8,000.0,035.7,029.2,25.2,0001.7,0007.32,0015.33,0006.42
